Voltar ao catálogo

ONEWEB-0095

AtivoComunicaçõesPO
NORAD 45436·PAYLOAD·🇬🇧 United Kingdom

Lançado Mar 21, 2020 de Baikonur Cosmodrome

Loading…

Próximas Passagens (próximas 24 horas)

TLE

AtualizadoSource: CelesTrak SupGP

Época: Sep 14, 2026, 22:42 UTC

1 45436C 20020N   26257.94598796 -.00002235  00000+0 -63150-2 0  2572
2 45436  87.8957   3.2244 0001482 125.1218 336.8801 13.11414838    12

Acompanhe ONEWEB-0095 em tempo real com AllMySat

Download on the App Store